[[{"header":{"parameterUnit":"m.s-1","parameterCategory":1,"la1":30.2991,"la2":30.254,"lo1":-89.0895,"lo2":-89.0444,"dy":0.0017,"dx":0.0017,"nx":28,"ny":28,"refTime":"2025-12-18T09:00:00:Z","depth":0,"parameterNumber":2,"parameterNumberName":"U-component_of_WINDS"},"data":[0,0,0,0,0,0,0,0,0,0,0,0,0,0,0,0,0,0,0,0,0,0,0,0,0,0,0,0,0,0,0,0,0,0,0,0,0,0,0,0,0,0,0,0,0,0,0,0,0,0,0,0,0,0,0,0,0,0,-4.5238,-4.5239,0,-4.5284,-4.5285,-4.5285,-4.5141,-4.5137,-4.5132,-4.5128,-4.5175,-4.5181,-4.5186,0,0,0,0,0,0,0,0,0,0,0,0,0,-4.5027,-4.5031,-4.5238,-4.5239,-4.524,-4.5284,-4.5285,-4.5285,-4.5142,-4.5137,-4.5131,-4.5126,-4.5174,-4.518,-4.5186,0,0,0,0,0,0,0,0,0,0,0,0,0,-4.51,-4.5033,-4.5238,-4.5173,-4.5168,-4.5284,-4.5285,-4.5285,-4.5143,-4.5136,-4.513,-4.5124,-4.5172,-4.5179,-4.5187,-4.5368,0,0,-4.5212,-4.5215,0,0,0,0,0,0,0,0,-4.5096,-4.5108,-4.5182,-4.5178,-4.5172,-4.52,-4.5227,-4.5313,-4.5145,-4.5153,-4.5128,-4.5121,-4.5189,-4.5195,-4.5218,-4.537,-4.5372,-4.5212,-4.5217,-4.5221,-4.5223,0,0,0,0,0,0,0,-4.5091,-4.5105,-4.5256,-4.5184,-4.5177,-4.5142,-4.5145,-4.5243,-4.5207,-4.5151,-4.5141,-4.5148,-4.5185,-4.5211,-4.5218,-4.5373,-4.5212,-4.5219,-4.5224,-4.5227,-4.5675,-4.5682,0,0,0,0,0,0,-4.5095,-4.5102,-4.5255,-4.5258,-4.5117,-4.5151,-4.5155,-4.5198,-4.5206,-4.52,-4.5154,-4.5141,-4.52,-4.5209,-4.5219,-4.543,-4.5221,-4.5228,-4.5233,-4.5668,-4.5676,-4.5684,0,0,0,0,0,0,-4.5091,-4.511,-4.5253,-4.5177,-4.5193,-4.5162,-4.5211,-4.5202,-4.5228,-4.5207,-4.52,-4.5187,-4.5195,-4.5208,-4.5332,-4.543,-4.5232,-4.5239,-4.5659,-4.567,-4.568,-4.5855,0,0,0,0,0,0,-4.5085,-4.5109,-4.5178,-4.518,-4.5197,-4.5365,-4.5217,-4.5208,-4.5242,-4.5226,-4.5237,-4.5232,-4.5191,-4.5321,-4.534,-4.5437,-4.5245,-4.565,-4.5664,-4.5677,-4.584,-4.587,-4.5896,0,0,0,0,0,-4.5078,-4.5225,-4.5182,-4.5201,-4.5282,-4.5371,-4.5381,-4.5331,-4.5251,-4.5319,-4.5306,-4.5232,-4.5417,-4.5335,-4.5355,-4.5456,-4.5644,-4.566,-4.5676,-4.5828,-4.5864,-4.5895,0,0,0,0,0,0,-4.5235,-4.5224,-4.5176,-4.5328,-4.5352,-4.5347,-4.5431,-4.5372,-4.5419,-4.5402,-4.5339,-4.5342,-4.5477,-4.5479,-4.5388,-4.5631,-4.5516,-4.5537,-4.5625,-4.5659,-4.5687,-4.5683,-4.5252,0,0,0,0,0,-4.5288,-4.5361,-4.5347,-4.5483,-4.5497,-4.5463,-4.55,-4.546,-4.5481,-4.5491,-4.5486,-4.5511,-4.5574,-4.5617,-4.5674,-4.584,-4.584,-4.592,-4.5948,-4.5971,-4.5989,-4.6076,-4.6111,-4.5736,-4.5736,-4.5736,0,0,-4.5396,-4.5399,-4.545,-4.5515,-4.5528,-4.5605,-4.5472,-4.556,-4.5616,-4.5504,-4.562,-4.5619,-4.5641,-4.5787,-4.5851,-4.5793,-4.6093,-4.5991,-4.601,-4.6015,-4.6096,-4.6132,-4.6163,-4.5747,-4.5745,-4.5743,0,0,-4.5633,-4.5644,-4.5757,-4.5774,-4.5796,-4.5772,-4.58,-4.5804,-4.5799,-4.5914,-4.5832,-4.5898,-4.6009,-4.6028,-4.6053,-4.6298,-4.6231,-4.6319,-4.6464,-4.6549,-4.6579,-4.6605,-4.6691,-4.6723,-4.6337,-4.6338,-4.6338,0,-4.5765,-4.5878,-4.5823,-4.5916,-4.5947,-4.5849,-4.5963,-4.5982,-4.6022,-4.6046,-4.598,-4.6117,-4.6125,-4.6274,-4.6334,-4.6357,-4.6386,-4.6316,-4.6579,-4.6604,-4.6628,-4.6709,-4.6742,-4.6348,-4.6347,-4.6346,-4.6345,0,-4.6039,-4.6119,-4.6208,-4.6249,-4.629,-4.6393,-4.6353,-4.6401,-4.6358,-4.6341,-4.646,-4.6468,-4.6524,-4.6557,-4.6515,-4.67,-4.6663,-4.659,-4.6472,-4.6675,-4.675,-4.6781,-4.6363,-4.6359,-4.6356,-4.6354,0,0,-4.6375,-4.6384,-4.6418,-4.6435,-4.6452,-4.6513,-4.6612,-4.6667,-4.6709,-4.6741,-4.6822,-4.6918,-4.685,-4.6878,-4.6838,-4.6914,-4.7107,-4.6831,-4.6831,-4.6881,-4.7309,-4.7362,-4.74,-4.7063,-4.7069,-4.7074,-4.7306,0,-4.6606,-4.6775,-4.6729,-4.6898,-4.697,-4.6879,-4.6965,-4.6986,-4.6973,-4.7033,-4.7019,-4.7087,-4.6994,-4.701,-4.7081,-4.7068,-4.7192,-4.7051,-4.7137,-4.7141,-4.7132,-4.7439,-4.7496,-4.7715,-4.7336,-4.7341,-4.7344,0,-4.6899,-4.6942,-4.7118,-4.7123,-4.7152,-4.723,-4.7277,-4.7335,-4.7357,-4.7342,-4.7374,-4.7319,-4.7416,-4.7301,-4.7433,-4.7339,-4.7372,-4.7371,-4.7379,-4.7383,-4.7254,-4.7451,-4.7784,-4.7816,-4.7391,-4.7387,-4.7383,0,-4.7124,-4.7226,-4.7344,-4.7362,-4.7372,-4.7429,-4.7435,-4.745,-4.7486,-4.7528,-4.755,-4.7603,-4.7632,-4.7674,-4.7634,-4.7554,-4.7773,-4.7654,-4.7763,-4.7764,-4.7812,-4.7809,-4.8154,-4.7837,-4.7836,-4.7836,-4.7835,0,-4.7387,-4.7498,-4.7445,-4.7518,-4.7639,-4.7585,-4.7707,-4.7703,-4.7718,-4.7788,-4.7713,-4.7781,-4.7725,-4.7788,-4.7759,-4.7872,-4.7886,-4.7877,-4.7867,-4.7883,-4.7884,-4.7902,-4.7885,-4.7844,-4.7842,-4.7841,-4.7839,0,-4.7658,-4.7627,-4.775,-4.7749,-4.7752,-4.7841,-4.7841,-4.7908,-4.789,-4.798,-4.7998,-4.7971,-4.8041,-4.8006,-4.8079,-4.8059,-4.8206,-4.8177,-4.8199,-4.819,-4.8301,-4.829,-4.8667,-4.8714,-4.8369,-4.8372,-4.8375,0,-4.7826,-4.7909,-4.7918,-4.796,-4.7971,-4.804,-4.8076,-4.8027,-4.8068,-4.8099,-4.8162,-4.8226,-4.8274,-4.839,-4.8377,-4.8432,-4.8403,-4.8531,-4.841,-4.8423,-4.8403,-4.8397,-4.8405,-4.8555,-4.8559,-4.8562,-4.8565,0,-4.8128,-4.8109,-4.8164,-4.8216,-4.8261,-4.8299,-4.833,-4.8368,-4.832,-4.837,-4.844,-4.8478,-4.8552,-4.8616,-4.8665,-4.8671,-4.8611,-4.8603,-4.8631,-4.8647,-4.8655,-4.865,-4.8263,-4.8594,-4.8591,-4.8589,-4.8588,-4.8586,-4.8352,-4.8421,-4.8438,-4.8502,-4.8521,-4.8552,-4.8614,-4.8605,-4.8663,-4.8719,-4.8687,-4.877,-4.8789,-4.8848,-4.8863,-4.8927,-4.8875,-4.8916,-4.8926,-4.8937,-4.8951,-4.8647,-4.8936,-4.8935,-4.8934,-4.8933,-4.8933,0,-4.8648,-4.8655,-4.8715,-4.876,-4.8811,-4.875,-4.8782,-4.8828,-4.8901,-4.8925,-4.8974,-4.9055,-4.9117,-4.9109,-4.9165,-4.9218,-4.9191,-4.9234,-4.9229,-4.9231,-4.8994,-4.8963,-4.9255,-4.9255,-4.9255,-4.9255,-4.9255,-4.9255,-4.8808,-4.8922,-4.8905,-4.9027,-4.9033,-4.9113,-4.9136,-4.9164,-4.9182,-4.9276,-4.9327,-4.9322,-4.9332,-4.9389,-4.9443,-4.9439,-4.9463,-4.9516,-4.9502,-4.928,-4.9248,-4.9218,-4.9188,-4.9522,-4.9523,-4.9733,-4.9735,-4.9737]},{"header":{"parameterUnit":"m.s-1","parameterCategory":1,"la1":30.2991,"la2":30.254,"lo1":-89.0895,"lo2":-89.0444,"dy":0.0017,"dx":0.0017,"nx":28,"ny":28,"refTime":"2025-12-18T09:00:00:Z","depth":0,"parameterNumber":3,"parameterNumberName":"V-component_of_WINDS"},"data":[0,0,0,0,0,0,0,0,0,0,0,0,0,0,0,0,0,0,0,0,0,0,0,0,0,0,0,0,0,0,0,0,0,0,0,0,0,0,0,0,0,0,0,0,0,0,0,0,0,0,0,0,0,0,0,0,0,0,0.0784,0.0783,0,0.0748,0.0747,0.0747,0.0691,0.069,0.0689,0.0688,0.0653,0.0653,0.0653,0,0,0,0,0,0,0,0,0,0,0,0,0,0.0807,0.0807,0.0784,0.0783,0.0783,0.0748,0.0747,0.0747,0.0691,0.069,0.0689,0.0688,0.0653,0.0653,0.0653,0,0,0,0,0,0,0,0,0,0,0,0,0,0.0786,0.0807,0.0784,0.0751,0.0748,0.0748,0.0747,0.0747,0.0692,0.069,0.0689,0.0687,0.0653,0.0653,0.0653,0.0682,0,0,0.0653,0.0653,0,0,0,0,0,0,0,0,0.0788,0.0786,0.0756,0.0753,0.0749,0.0722,0.0742,0.0725,0.0692,0.0713,0.0688,0.0687,0.0677,0.0675,0.0672,0.0681,0.0679,0.0653,0.0653,0.0652,0.0652,0,0,0,0,0,0,0,0.0789,0.0787,0.0769,0.0756,0.0752,0.0739,0.0734,0.0739,0.0704,0.0711,0.0707,0.0703,0.0675,0.0672,0.067,0.0679,0.0653,0.0652,0.0652,0.0652,0.0712,0.0713,0,0,0,0,0,0,0.0795,0.0788,0.077,0.0768,0.0765,0.074,0.0734,0.0733,0.0704,0.0698,0.0705,0.0701,0.0673,0.067,0.0669,0.0703,0.0652,0.0652,0.0652,0.071,0.0712,0.0714,0,0,0,0,0,0,0.0796,0.0794,0.0772,0.0777,0.0773,0.0741,0.0739,0.0733,0.0729,0.0699,0.0693,0.0708,0.0671,0.0669,0.068,0.0701,0.0652,0.0652,0.0708,0.0711,0.0713,0.077,0,0,0,0,0,0,0.0797,0.0795,0.0805,0.0778,0.0773,0.0783,0.074,0.0733,0.0729,0.0724,0.07,0.0694,0.067,0.068,0.068,0.07,0.0652,0.0706,0.071,0.0712,0.0766,0.0774,0.0781,0,0,0,0,0,0.0798,0.0822,0.0806,0.0804,0.0785,0.0784,0.0782,0.0752,0.0731,0.0742,0.0722,0.0695,0.0699,0.0682,0.0681,0.0701,0.0705,0.0709,0.0712,0.0763,0.0773,0.0781,0,0,0,0,0,0,0.0853,0.0818,0.0799,0.0816,0.0803,0.0775,0.0787,0.0763,0.0757,0.0752,0.0717,0.0712,0.0728,0.0715,0.0697,0.0729,0.0698,0.0701,0.0737,0.0746,0.0753,0.0756,0.0652,0,0,0,0,0,0.0867,0.0868,0.0838,0.0855,0.085,0.082,0.0818,0.0797,0.0783,0.0777,0.0759,0.0747,0.0745,0.0744,0.0741,0.0764,0.0759,0.0778,0.0786,0.0792,0.0795,0.0808,0.0817,0.0726,0.0726,0.0726,0,0,0.0895,0.0877,0.088,0.0866,0.0854,0.0857,0.0816,0.082,0.0822,0.0778,0.0787,0.0774,0.0758,0.0775,0.0782,0.0765,0.0819,0.0796,0.0801,0.0802,0.0813,0.0821,0.0829,0.0728,0.0728,0.0727,0,0,0.095,0.0935,0.0949,0.0938,0.092,0.09,0.0904,0.0879,0.0868,0.0877,0.0844,0.0847,0.0844,0.0835,0.083,0.0882,0.0858,0.0882,0.0921,0.0934,0.0941,0.0947,0.0967,0.0975,0.0886,0.0886,0.0886,0,0.0988,0.099,0.0959,0.0966,0.0961,0.0922,0.0936,0.0927,0.0909,0.0907,0.0889,0.0886,0.0873,0.0888,0.0901,0.0898,0.0902,0.0885,0.0943,0.0948,0.0954,0.0972,0.098,0.0889,0.0889,0.0889,0.0888,0,0.1039,0.1042,0.1055,0.1039,0.1036,0.1047,0.1018,0.1018,0.0998,0.0981,0.0991,0.0973,0.0967,0.0969,0.0948,0.0982,0.0972,0.0949,0.0916,0.0966,0.0983,0.099,0.0894,0.0893,0.0892,0.0891,0,0,0.1126,0.1093,0.1099,0.1092,0.107,0.1072,0.1082,0.1075,0.1077,0.1067,0.1075,0.1074,0.1053,0.1047,0.1026,0.1037,0.1082,0.1012,0.1012,0.1027,0.1119,0.1137,0.1146,0.1065,0.1067,0.1068,0.1121,0,0.1176,0.119,0.1163,0.1184,0.1186,0.115,0.1158,0.1146,0.1131,0.1131,0.1114,0.1115,0.1086,0.1083,0.1092,0.1074,0.11,0.107,0.1073,0.1074,0.1079,0.1155,0.1173,0.1224,0.1127,0.1128,0.1129,0,0.1236,0.123,0.1251,0.123,0.123,0.1238,0.123,0.1231,0.1218,0.1206,0.12,0.1175,0.1184,0.1153,0.1166,0.1146,0.1146,0.1138,0.1139,0.1139,0.1105,0.1157,0.124,0.1248,0.1139,0.1138,0.1137,0,0.1299,0.1295,0.1308,0.1303,0.1278,0.1285,0.1275,0.126,0.1258,0.1252,0.1251,0.1246,0.1243,0.124,0.1215,0.1195,0.1232,0.1198,0.1223,0.1224,0.1232,0.1232,0.1317,0.1231,0.1231,0.1231,0.1231,0,0.1358,0.1373,0.1336,0.1343,0.1359,0.1328,0.1345,0.1332,0.1319,0.1324,0.1292,0.1298,0.1265,0.1267,0.1248,0.1262,0.1261,0.1252,0.1247,0.1255,0.1257,0.1255,0.1251,0.1233,0.1233,0.1232,0.1232,0,0.1431,0.1406,0.1418,0.1393,0.1388,0.1401,0.1381,0.1387,0.137,0.1377,0.1377,0.135,0.1352,0.1327,0.1323,0.131,0.1334,0.1322,0.1338,0.1335,0.1361,0.1359,0.1448,0.1459,0.1366,0.1367,0.1368,0,0.147,0.1481,0.1458,0.146,0.1451,0.1454,0.1452,0.1423,0.1422,0.1409,0.1418,0.1417,0.1414,0.1418,0.1399,0.1397,0.1385,0.1416,0.1384,0.1393,0.1386,0.1386,0.1388,0.1423,0.1424,0.1425,0.1426,0,0.1544,0.1532,0.153,0.1525,0.1524,0.1519,0.1511,0.1514,0.1482,0.1484,0.1485,0.1483,0.148,0.148,0.1474,0.1465,0.1441,0.1436,0.1442,0.1451,0.146,0.1457,0.1357,0.1434,0.1434,0.1433,0.1433,0.1432,0.1602,0.161,0.1596,0.1596,0.1587,0.1582,0.1587,0.1571,0.1571,0.1566,0.1549,0.1554,0.1542,0.1531,0.1524,0.1528,0.1513,0.1521,0.1523,0.1526,0.1531,0.146,0.1527,0.1527,0.1526,0.1526,0.1526,0,0.1674,0.1664,0.1664,0.1655,0.1656,0.1633,0.1624,0.1626,0.163,0.1621,0.1619,0.1622,0.1622,0.1603,0.1601,0.1608,0.1597,0.1608,0.1608,0.1606,0.1544,0.154,0.1617,0.1617,0.1617,0.1617,0.1617,0.1617,0.1712,0.1725,0.1712,0.1721,0.171,0.1714,0.1712,0.1707,0.1699,0.1703,0.1703,0.1691,0.1678,0.1675,0.1674,0.1669,0.167,0.1686,0.1677,0.1619,0.161,0.1602,0.1598,0.1686,0.1686,0.1738,0.1739,0.1739]}]]